Location: Oberkirch
(48.5323°N, 8.0787°E)
Time: 21:38:29
(UTC+00:00)

Tiros 1 - Pass Details

Date: 18 February 2026
Orbit: 618 x 649 km, 48.4° (Epoch: 7 March)

Event Time Altitude Azimuth Distance (km) Brightness Sun altitude
Rises 10:03:03 0° 260° (W) 2,904 10.3 26.1°
Reaches altitude 10° 10:05:22 10° 260° (W) 1,993 9.6 26.3°
Maximum altitude 10:09:58 85° 171° (S) 628 7.7 26.6°
Drops below altitude 10° 10:14:32 10° 85° (E) 1,983 10.0 26.9°
Sets 10:16:50 0° 84° (E) 2,888 10.7 27.1°
